User: anonymous   Login
Location: Unspecified
(0.0000°N, 0.0000°E)
Time: 17:38:44
(UTC+00:00)
Language:

ASTRA 1KR - Orbit

View from above orbital plane
View from above orbital plane
View from above satellite
View from above satellite

Ground track
Ground track

The orbit data is extracted from the following two-line orbital elements,

1 29055U 06012A   17266.25674411 +.00000098 +00000-0 +00000-0 0  9999
2 29055 000.0878 274.9695 0004743 294.1003 264.8730 01.00275877013747
Epoch (UTC): 23 September 2017 06:09:42
Eccentricity: 0.0004743
inclination: 0.0878°
perigee height: 35765 km
apogee height: 35805 km
right ascension of ascending node: 274.9695°
argument of perigee: 294.1003°
revolutions per day: 1.00275877
mean anomaly at epoch: 264.8730°
orbit number at epoch: 1374

The dashed part of the orbit path shows where the satellite is in the earth's shadow,  

DLR